Temp
77 74 77 86 84 86 85 82 81 80 79 78 78 78 77 76 75 78 75 77 77 82 82 83 79 79 78 78 78 78 77 76 76
74 75 72 78 86 86 86 84 82 81 79 79 78 78 78 77 75 77 76 77 78 79 80 82 80 80 80 78 78 77 77 76 75
72 71 72 71 73 82 84 87 84 83 80 79 79 80 79 79 78 76 75 77 77 78 79 80 79 81 81 79 78 78 76 75 76
74 71 70 70 71 73 75 80 87 84 81 79 79 80 80 79 79 78 77 75 77 77 78 78 80 79 78 79 79 78 77 76 77
77 73 74 71 72 71 71 71 87 86 84 80 80 81 81 80 79 79 79 76 75 79 77 77 80 81 81 78 78 78 77 76 79
78 78 75 76 75 76 80 76 78 88 87 83 82 82 80 80 80 79 80 80 76 77 77 77 79 79 80 80 80 78 77 77 77
75 76 75 75 79 77 79 83 80 88 88 88 84 82 82 80 80 80 80 81 81 77 81 78 79 78 79 78 79 78 78 78 77
73 72 75 75 78 77 71 78 77 86 89 89 88 83 82 81 81 82 81 80 79 80 79 82 78 79 77 80 79 82 77 78 78
70 66 66 70 75 74 78 77 76 82 89 89 89 86 83 83 82 82 81 80 80 78 79 80 82 80 79 77 83 76 73 78 77
65 65 65 67 73 69 71 71 75 73 78 87 88 87 84 83 82 81 80 81 80 78 79 80 79 81 81 80 81 71 71 73 82
62 63 64 65 67 69 71 69 71 70 70 72 75 84 84 83 82 81 81 81 80 80 80 80 81 80 80 80 81 70 68 71 80
62 62 64 64 66 66 68 74 70 72 73 72 72 80 83 83 83 81 81 80 81 81 81 80 81 82 80 80 81 67 67 68 77
63 64 66 63 64 68 68 72 73 72 71 72 76 85 85 84 84 83 81 81 82 83 83 83 82 82 82 77 81 68 65 67 80
64 63 63 64 64 64 67 69 69 72 72 79 75 82 84 84 84 84 83 83 83 83 82 82 82 81 82 82 79 80 62 62 81
60 61 62 64 61 62 66 66 65 66 69 71 77 81 78 81 84 85 84 82 82 82 82 81 80 80 80 82 83 69 64 60 62
59 60 61 62 60 62 64 64 64 64 66 68 70 75 79 78 83 84 86 81 81 80 81 80 80 80 79 81 83 83 64 60 60
58 59 59 61 58 60 59 62 64 64 65 66 66 69 78 81 83 83 85 84 83 82 81 80 80 80 80 81 82 83 83 71 65
57 55 59 59 58 59 60 60 60 63 63 64 64 67 76 80 84 80 84 85 83 83 84 82 82 82 82 81 80 83 77 75 75
55 57 57 57 58 58 58 60 59 60 60 60 62 63 71 80 84 82 84 82 69 52 57 58 60 63 77 82 64 67 61 57 59
56 57 55 56 57 57 57 58 57 58 58 59 60 61 64 68 77 82 81 80 80 72 61 49 47 49 60 58 60 51 53 50 54
MSLP
1005.52 1005.85 1005.97 1006.26 1007.00 1008.05 1008.88 1010.00 1010.85 1011.60 1012.46 1013.10 1013.69 1014.31 1014.91 1015.37 1015.52 1015.82 1016.12 1016.57 1016.78 1017.01 1017.36 1017.48 1017.59 1018.01 1018.50 1018.89 1019.22 1019.57 1019.89 1020.25 1020.47
1005.23 1005.62 1006.15 1006.78 1006.52 1007.38 1008.27 1009.36 1010.21 1010.92 1011.84 1012.50 1013.03 1013.62 1014.23 1014.83 1015.22 1015.33 1015.69 1016.01 1016.36 1016.61 1016.82 1017.05 1017.29 1017.54 1018.21 1018.52 1018.86 1019.15 1019.52 1020.09 1020.27
1004.21 1005.15 1005.23 1007.58 1008.85 1008.22 1008.07 1008.19 1009.41 1010.51 1011.31 1011.88 1012.40 1013.05 1013.72 1014.15 1014.55 1014.86 1015.19 1015.57 1015.85 1016.06 1016.21 1016.51 1016.79 1017.37 1017.82 1018.27 1018.50 1018.78 1019.39 1019.85 1020.10
1002.42 1003.87 1004.81 1007.84 1009.26 1008.65 1008.65 1008.83 1008.81 1009.32 1010.24 1011.15 1011.88 1012.38 1012.98 1013.61 1014.10 1014.48 1014.81 1015.11 1015.33 1015.59 1015.73 1016.13 1016.55 1017.06 1017.58 1018.05 1018.39 1018.69 1019.19 1019.55 1019.81
1002.11 1003.39 1004.59 1005.45 1005.68 1007.10 1007.49 1007.61 1007.74 1008.03 1008.91 1009.97 1010.52 1011.34 1012.00 1012.73 1013.35 1013.91 1014.26 1014.56 1014.84 1015.18 1015.40 1015.81 1016.27 1016.67 1017.21 1017.67 1018.03 1018.28 1018.71 1019.15 1019.39
1003.23 1003.17 1004.60 1005.20 1005.03 1004.57 1005.38 1006.42 1006.99 1007.00 1007.41 1008.53 1009.62 1010.42 1011.23 1011.86 1012.47 1012.97 1013.28 1013.72 1014.15 1014.48 1014.96 1015.31 1015.89 1016.25 1016.67 1017.11 1017.50 1017.82 1018.19 1018.60 1018.95
1003.87 1004.60 1004.12 1004.61 1004.80 1003.02 1003.20 1004.42 1005.61 1005.90 1006.60 1007.32 1008.61 1009.31 1010.12 1010.86 1011.43 1011.93 1012.47 1012.96 1013.53 1013.99 1014.27 1014.76 1015.16 1015.61 1016.02 1016.33 1016.75 1017.23 1017.63 1018.05 1018.41
1005.49 1005.58 1005.35 1005.48 1003.58 1004.18 1004.65 1004.50 1004.78 1004.68 1005.41 1006.22 1007.19 1008.33 1009.13 1009.65 1010.50 1011.31 1011.96 1012.43 1012.85 1013.43 1013.80 1014.04 1014.45 1014.97 1015.45 1015.82 1016.24 1016.68 1017.12 1017.52 1017.90
1006.74 1006.90 1007.23 1007.71 1006.55 1005.23 1004.57 1004.09 1003.21 1004.58 1004.84 1005.34 1006.20 1007.01 1008.04 1009.11 1009.75 1010.31 1010.78 1011.46 1011.99 1012.60 1013.09 1013.41 1013.82 1014.29 1014.75 1015.24 1015.53 1015.89 1016.39 1016.85 1017.28
1007.83 1008.21 1008.55 1008.84 1006.84 1005.12 1005.55 1005.54 1004.15 1004.47 1006.22 1005.64 1005.75 1005.95 1006.88 1007.72 1008.58 1009.28 1009.83 1010.54 1011.21 1011.70 1012.18 1012.81 1013.07 1013.44 1013.97 1014.39 1014.78 1015.12 1015.59 1016.06 1016.49
1008.55 1008.40 1008.06 1008.02 1008.20 1008.21 1007.98 1007.32 1006.44 1005.73 1006.20 1005.43 1007.08 1006.29 1005.83 1006.57 1007.30 1008.10 1008.95 1009.62 1010.19 1010.82 1011.32 1011.79 1012.22 1012.65 1013.15 1013.68 1014.02 1014.47 1014.90 1015.29 1015.77
1009.66 1009.18 1008.81 1008.77 1008.41 1007.73 1006.94 1006.34 1005.19 1004.62 1003.75 1004.67 1006.10 1006.00 1005.70 1005.55 1006.20 1007.00 1007.81 1008.46 1008.99 1009.63 1010.29 1010.77 1011.12 1011.63 1012.20 1012.68 1013.12 1013.63 1014.17 1014.71 1015.22
1010.11 1009.99 1009.20 1009.31 1008.37 1008.86 1008.29 1007.21 1006.57 1005.83 1005.39 1004.55 1004.36 1004.23 1004.61 1004.60 1005.24 1005.91 1006.47 1007.25 1007.93 1008.54 1009.10 1009.56 1010.28 1010.71 1011.12 1011.65 1012.17 1012.73 1013.20 1013.83 1014.33
1011.21 1010.73 1009.91 1010.30 1009.79 1008.93 1008.12 1008.48 1007.70 1006.23 1005.23 1004.16 1003.99 1003.94 1003.63 1003.87 1004.04 1004.62 1005.28 1006.14 1006.92 1007.53 1008.20 1008.78 1009.27 1009.79 1010.24 1010.80 1011.30 1011.72 1012.24 1012.73 1013.27
1011.81 1011.71 1011.12 1010.68 1009.89 1008.47 1008.14 1007.94 1007.96 1007.88 1006.42 1005.62 1004.74 1003.20 1002.97 1003.17 1003.37 1003.98 1004.55 1005.05 1005.87 1006.58 1007.29 1007.86 1008.36 1008.94 1009.39 1009.65 1010.05 1010.53 1011.03 1011.52 1012.13
1011.90 1011.92 1011.59 1010.83 1010.11 1009.60 1009.04 1008.76 1008.03 1006.89 1005.71 1005.05 1004.14 1003.63 1002.51 1002.66 1003.03 1003.16 1003.49 1004.26 1004.98 1005.77 1006.35 1006.86 1007.34 1007.88 1008.25 1008.50 1008.87 1009.27 1009.73 1010.15 1010.68
1012.18 1011.95 1011.83 1011.77 1011.56 1010.46 1009.41 1009.85 1008.81 1007.99 1006.90 1005.88 1004.90 1003.66 1002.25 1001.83 1002.07 1002.36 1002.60 1003.23 1003.91 1004.49 1005.04 1005.57 1006.20 1006.71 1006.99 1007.43 1007.89 1008.14 1008.52 1009.49 1010.11
1012.64 1012.38 1012.02 1011.79 1011.25 1011.12 1009.86 1009.76 1009.56 1008.89 1007.74 1006.38 1005.05 1003.62 1002.09 1001.45 1001.18 1001.54 1001.89 1002.23 1002.73 1003.34 1003.55 1004.05 1004.80 1005.23 1005.93 1006.37 1006.68 1006.63 1007.00 1007.84 1008.79
1012.91 1012.73 1012.24 1011.55 1010.86 1010.27 1009.39 1010.05 1010.44 1009.69 1008.31 1007.10 1005.66 1004.13 1002.54 1001.05 1000.63 1000.79 1001.09 1001.74 1003.08 1003.43 1003.33 1003.41 1003.80 1004.38 1004.78 1005.33 1005.69 1005.99 1006.46 1006.75 1007.09
1012.72 1012.62 1012.37 1011.82 1010.97 1010.48 1010.50 1010.84 1010.99 1009.73 1008.76 1007.37 1005.88 1004.78 1003.47 1002.17 1000.62 1000.29 1000.77 1001.19 1001.93 1003.07 1004.03 1004.20 1004.39 1004.58 1004.30 1004.78 1005.34 1005.76 1005.94 1006.06 1006.27
Wind_Speed
8 3 4 20 23 22 20 23 23 22 21 19 18 17 15 10 8 7 5 6 5 9 9 9 7 8 7 7 7 6 5 3 3
10 8 8 5 23 22 22 18 22 22 21 20 19 19 16 13 8 8 7 8 6 6 8 6 8 10 10 8 7 7 7 4 4
13 8 13 8 11 12 18 19 20 20 20 21 19 18 16 14 15 9 7 7 7 7 7 7 10 11 11 9 8 7 7 5 5
26 21 24 17 12 8 7 7 17 21 19 21 19 19 17 17 15 12 9 7 9 7 6 7 11 10 7 9 9 8 8 7 6
27 27 22 20 21 9 5 7 17 21 20 22 22 20 18 18 16 15 14 10 8 9 8 7 9 11 11 8 7 8 8 8 6
19 26 24 19 13 12 19 10 11 20 21 22 21 20 19 18 18 17 18 17 10 9 9 8 8 9 13 13 11 8 8 8 7
10 6 15 21 20 22 27 26 15 21 21 21 21 21 20 20 19 18 18 16 16 9 13 9 10 9 10 9 10 9 8 8 8
14 18 7 12 18 12 4 16 5 15 20 21 20 21 21 21 19 18 16 17 15 16 11 14 9 10 8 10 9 8 8 8 10
14 16 19 21 13 18 12 11 13 6 19 21 20 20 21 19 18 18 18 16 16 15 15 13 15 13 11 10 10 14 15 12 8
13 9 8 7 19 15 7 7 7 5 12 9 20 21 20 20 20 19 19 16 16 15 17 13 13 15 15 14 13 16 18 18 11
16 15 12 12 12 11 7 4 7 8 15 6 9 12 19 20 20 20 18 18 17 16 15 17 16 14 14 14 13 15 17 18 14
16 16 14 11 11 13 11 16 7 3 4 5 9 14 17 18 20 19 19 20 19 17 15 16 17 15 16 16 15 16 17 13 11
17 17 16 16 15 12 10 14 14 9 7 5 13 17 19 17 18 19 20 19 20 16 17 16 13 16 15 16 16 15 19 16 10
13 14 17 14 12 11 11 11 16 8 16 15 10 12 10 14 17 20 19 18 17 18 16 15 15 15 15 15 15 16 18 20 15
11 13 15 14 13 13 14 14 11 9 6 12 9 7 8 10 14 15 13 18 16 16 16 15 15 15 13 12 14 16 17 20 22
8 10 11 10 12 12 12 14 15 15 16 16 16 11 8 12 12 15 16 16 16 13 15 14 13 12 13 12 12 12 18 21 22
7 8 9 8 7 8 12 13 15 15 15 16 15 15 10 11 14 14 14 13 14 14 14 14 13 13 13 12 11 11 10 10 11
3 9 9 7 4 6 7 12 13 15 16 15 16 13 11 9 13 13 13 14 13 14 15 15 14 13 12 12 12 14 14 13 11
5 6 6 7 7 7 9 11 13 13 14 15 13 13 10 7 10 10 12 12 4 10 1 13 17 15 13 11 8 14 16 17 21
5 3 6 8 7 8 8 8 11 13 15 14 13 12 11 10 8 9 10 10 12 8 4 11 11 3 16 13 11 9 9 12 21
Wind_Direction
187 177 297 176 177 187 183 181 182 181 186 182 182 187 194 198 206 198 188 180 174 179 183 195 174 176 167 172 170 175 181 192 202
165 132 88 2 184 188 189 181 188 186 185 190 186 189 192 192 202 204 191 195 187 190 178 190 183 171 174 176 182 176 180 190 219
145 146 89 328 311 221 197 190 186 188 186 190 190 190 196 198 198 198 187 191 202 198 184 172 174 175 177 180 183 179 176 189 216
166 151 146 198 221 255 205 256 194 188 184 188 192 195 193 197 202 204 195 191 205 200 195 160 165 172 171 182 186 181 176 194 200
178 169 177 176 179 186 219 201 221 192 186 189 192 192 195 197 197 201 205 201 193 201 208 169 178 181 185 188 189 181 180 195 203
187 179 173 177 164 166 232 209 251 204 191 190 191 193 195 197 198 197 204 207 199 191 192 205 173 180 182 185 192 189 187 190 204
20 273 174 177 181 186 203 215 214 208 200 191 189 192 194 199 201 200 204 204 205 194 198 188 200 184 190 181 187 187 189 189 200
47 19 207 234 192 205 257 187 196 207 201 195 190 194 196 199 198 201 200 206 201 205 204 203 190 190 183 191 187 195 195 191 196
48 43 33 356 249 248 221 230 194 229 210 198 194 191 198 198 198 200 202 200 201 196 206 207 206 206 197 193 203 200 197 197 195
39 41 38 356 13 43 39 341 303 250 281 216 200 196 193 196 196 201 202 198 198 195 202 203 200 207 208 210 210 201 200 202 211
18 3 24 7 16 17 342 243 218 168 246 51 308 221 194 193 193 198 197 199 200 199 196 204 212 211 210 211 216 202 203 205 214
12 0 356 9 4 345 345 333 317 237 154 169 279 264 212 194 193 193 194 200 198 198 196 203 208 210 210 211 216 201 205 198 213
7 352 358 352 359 339 352 335 313 306 266 263 254 251 213 192 190 194 197 195 199 197 202 207 203 214 214 213 217 202 205 196 208
3 348 348 346 333 341 352 346 336 301 259 256 237 266 198 193 189 194 195 194 195 198 200 203 209 211 216 216 211 215 202 202 212
350 347 340 347 344 351 351 343 334 323 316 329 276 228 215 199 193 195 191 190 191 195 198 203 207 212 215 219 218 210 203 201 207
341 339 334 338 350 346 357 344 336 334 339 338 331 301 207 207 201 193 191 188 189 190 195 201 205 207 214 218 217 218 206 199 203
322 328 321 319 316 344 0 340 337 330 332 332 324 311 245 200 199 197 193 185 190 191 196 200 203 209 213 215 219 216 207 206 206
314 308 295 303 306 315 11 345 335 331 329 335 330 320 282 216 205 195 195 194 190 197 203 199 202 208 209 211 213 217 206 190 195
297 281 302 320 323 344 14 353 326 325 333 330 332 326 331 250 212 198 196 193 147 41 42 205 199 198 203 211 249 200 207 196 198
260 291 348 335 337 351 3 352 319 330 327 324 337 330 327 332 249 190 194 194 200 190 67 67 55 331 212 195 179 174 184 199 206